User: anonymous   Login
Location: Unspecified
(0.0000°N, 0.0000°E)
Time: 17:23:07
(UTC+00:00)
Language:

HODOYOSHI 1 - Orbit

View from above orbital plane
View from above orbital plane
View from above satellite
View from above satellite

Ground track
Ground track

The orbit data is extracted from the following two-line orbital elements,

1 40299U 14070B   18146.11677200  .00000451  00000-0  22192-4 0  9990
2 40299  97.3768 228.2794 0012440 335.7714 116.1035 15.22880384197129
Epoch (UTC): 26 May 2018 02:48:09
Eccentricity: 0.0012440
inclination: 97.3768°
perigee height: 488 km
apogee height: 506 km
right ascension of ascending node: 228.2794°
argument of perigee: 335.7714°
revolutions per day: 15.22880384
mean anomaly at epoch: 116.1035°
orbit number at epoch: 19712

The dashed part of the orbit path shows where the satellite is in the earth's shadow,  

DLR